{"data":{"norad_id":57501,"epoch":"2026-05-25T03:18:38.434176Z","epoch_age_seconds":60249,"freshness":"FRESH","line1":"1 57501U 23113G   26145.13794484 -.00000135  00000+0  46272-5 0  9991","line2":"2 57501  43.0013 304.6009 0001387 273.9639  86.1054 15.27581592155258","mean_motion":15.27581592,"eccentricity":0.0001387,"inclination_deg":43.0013,"raan_deg":304.6009,"arg_perigee_deg":273.9639,"mean_anomaly_deg":86.1054,"bstar":4.6272e-6,"rev_number":15525,"period_min":94.266650471656,"perigee_km":482.09268317274,"apogee_km":483.99597487341,"semimajor_km":6861.1813290231,"source":"CELESTRAK","updated_at":"2026-05-25T13:38:18.328127Z"}}